Time,TemperatureF,DewpointF,PressureIn,WindDirection,WindDirectionDegrees,WindSpeedMPH,WindSpeedGustMPH,Humidity,HourlyPrecipIn,Conditions,Clouds,dailyrainin,SoftwareType,DateUTC
2013-04-23 00:01:00,55.0,43.0,30.17,ENE,70,0.0,-999.0,64,0.00,,,0.00,Wunderground v.1.12,2013-04-23 04:01:00,
2013-04-23 00:03:00,55.0,43.0,30.17,ENE,71,0.0,-999.0,64,0.00,,,0.00,Wunderground v.1.12,2013-04-23 04:03:00,
2013-04-23 00:04:00,55.0,42.6,30.17,ENE,71,0.0,-999.0,63,0.00,,,0.00,Wunderground v.1.12,2013-04-23 04:04:00,
2013-04-23 00:06:00,55.0,42.6,30.17,ENE,71,0.0,-999.0,63,0.00,,,0.00,Wunderground v.1.12,2013-04-23 04:06:00,
2013-04-23 00:11:00,55.0,42.6,30.17,ENE,71,0.0,-999.0,63,0.00,,,0.00,Wunderground v.1.12,2013-04-23 04:11:00,
2013-04-23 00:16:00,55.0,42.6,30.17,ENE,71,0.0,-999.0,63,0.00,,,0.00,Wunderground v.1.12,2013-04-23 04:16:00,
2013-04-23 00:21:00,55.0,42.2,30.17,ENE,61,0.0,-999.0,62,0.00,,,0.00,Wunderground v.1.12,2013-04-23 04:21:00,
2013-04-23 00:26:00,55.0,41.8,30.17,ENE,61,0.0,-999.0,61,0.00,,,0.00,Wunderground v.1.12,2013-04-23 04:26:00,
2013-04-23 00:31:00,55.1,41.9,30.17,ENE,65,0.0,-999.0,61,0.00,,,0.00,Wunderground v.1.12,2013-04-23 04:31:00,
2013-04-23 00:37:00,55.1,41.5,30.17,ENE,64,0.0,-999.0,60,0.00,,,0.00,Wunderground v.1.12,2013-04-23 04:37:00,
2013-04-23 00:43:00,55.1,41.0,30.17,North,353,0.0,-999.0,59,0.00,,,0.00,Wunderground v.1.12,2013-04-23 04:43:00,
2013-04-23 00:49:00,55.1,41.0,30.17,North,353,0.0,-999.0,59,0.00,,,0.00,Wunderground v.1.12,2013-04-23 04:49:00,
2013-04-23 00:54:00,55.3,41.2,30.17,North,353,0.0,-999.0,59,0.00,,,0.00,Wunderground v.1.12,2013-04-23 04:54:00,
2013-04-23 01:00:00,55.3,40.8,30.17,North,353,0.0,-999.0,58,0.00,,,0.00,Wunderground v.1.12,2013-04-23 05:00:00,
2013-04-23 01:06:00,55.3,40.8,30.17,North,353,0.0,-999.0,58,0.00,,,0.00,Wunderground v.1.12,2013-04-23 05:06:00,
2013-04-23 01:11:00,55.3,40.8,30.17,North,353,0.0,-999.0,58,0.00,,,0.00,Wunderground v.1.12,2013-04-23 05:11:00,
2013-04-23 01:16:00,55.1,40.1,30.17,North,355,0.0,-999.0,57,0.00,,,0.00,Wunderground v.1.12,2013-04-23 05:16:00,
2013-04-23 01:22:00,55.1,39.7,30.17,North,358,0.0,-999.0,56,0.00,,,0.00,Wunderground v.1.12,2013-04-23 05:22:00,
2013-04-23 01:27:00,55.1,39.7,30.17,North,358,0.0,-999.0,56,0.00,,,0.00,Wunderground v.1.12,2013-04-23 05:27:00,
2013-04-23 01:33:00,55.0,39.6,30.17,North,358,0.0,-999.0,56,0.00,,,0.00,Wunderground v.1.12,2013-04-23 05:33:00,
2013-04-23 01:39:00,54.8,39.4,30.17,North,359,0.0,-999.0,56,0.00,,,0.00,Wunderground v.1.12,2013-04-23 05:39:00,
2013-04-23 01:44:00,54.8,39.4,30.17,North,359,0.0,-999.0,56,0.00,,,0.00,Wunderground v.1.12,2013-04-23 05:44:00,
2013-04-23 01:50:00,54.7,39.3,30.17,North,359,0.0,-999.0,56,0.00,,,0.00,Wunderground v.1.12,2013-04-23 05:50:00,
2013-04-23 01:55:00,54.5,39.1,30.17,North,359,0.0,-999.0,56,0.00,,,0.00,Wunderground v.1.12,2013-04-23 05:55:00,
2013-04-23 02:00:00,54.4,39.0,30.17,North,359,0.0,-999.0,56,0.00,,,0.00,Wunderground v.1.12,2013-04-23 06:00:00,
2013-04-23 02:05:00,54.4,39.0,30.17,North,359,0.0,-999.0,56,0.00,,,0.00,Wunderground v.1.12,2013-04-23 06:05:00,
2013-04-23 02:10:00,54.2,39.3,30.17,North,359,0.0,-999.0,57,0.00,,,0.00,Wunderground v.1.12,2013-04-23 06:10:00,
2013-04-23 02:15:00,53.9,39.5,30.17,North,359,0.0,-999.0,58,0.00,,,0.00,Wunderground v.1.12,2013-04-23 06:15:00,
2013-04-23 02:20:00,53.8,39.4,30.17,North,359,0.0,-999.0,58,0.00,,,0.00,Wunderground v.1.12,2013-04-23 06:20:00,
2013-04-23 02:25:00,53.5,39.5,30.17,North,359,0.0,-999.0,59,0.00,,,0.00,Wunderground v.1.12,2013-04-23 06:25:00,
2013-04-23 02:30:00,53.2,39.7,30.17,North,359,0.0,-999.0,60,0.00,,,0.00,Wunderground v.1.12,2013-04-23 06:30:00,
2013-04-23 02:35:00,52.9,39.8,30.17,North,359,0.0,-999.0,61,0.00,,,0.00,Wunderground v.1.12,2013-04-23 06:35:00,
2013-04-23 02:40:00,52.8,40.1,30.17,North,359,0.0,-999.0,62,0.00,,,0.00,Wunderground v.1.12,2013-04-23 06:40:00,
2013-04-23 02:45:00,52.5,40.3,30.17,North,359,0.0,-999.0,63,0.00,,,0.00,Wunderground v.1.12,2013-04-23 06:45:00,
2013-04-23 02:50:00,52.0,40.2,30.17,North,359,0.0,-999.0,64,0.00,,,0.00,Wunderground v.1.12,2013-04-23 06:50:00,
2013-04-23 02:55:00,51.7,39.9,30.17,North,359,0.0,-999.0,64,0.00,,,0.00,Wunderground v.1.12,2013-04-23 06:55:00,
2013-04-23 03:00:00,51.6,40.2,30.17,North,359,0.0,-999.0,65,0.00,,,0.00,Wunderground v.1.12,2013-04-23 07:00:00,
2013-04-23 03:05:00,51.3,39.9,30.17,North,359,0.0,-999.0,65,0.00,,,0.00,Wunderground v.1.12,2013-04-23 07:05:00,
2013-04-23 03:10:00,51.0,40.0,30.17,North,359,0.0,-999.0,66,0.00,,,0.00,Wunderground v.1.12,2013-04-23 07:10:00,
2013-04-23 03:15:00,50.7,40.1,30.17,North,359,0.0,-999.0,67,0.00,,,0.00,Wunderground v.1.12,2013-04-23 07:15:00,
2013-04-23 03:21:00,50.4,39.9,30.17,North,359,0.0,-999.0,67,0.00,,,0.00,Wunderground v.1.12,2013-04-23 07:21:00,
2013-04-23 03:26:00,50.1,39.9,30.16,North,359,0.0,-999.0,68,0.00,,,0.00,Wunderground v.1.12,2013-04-23 07:26:00,
2013-04-23 03:31:00,49.8,39.7,30.16,North,359,0.0,-999.0,68,0.00,,,0.00,Wunderground v.1.12,2013-04-23 07:31:00,
2013-04-23 03:35:00,49.5,39.4,30.16,North,359,0.0,-999.0,68,0.00,,,0.00,Wunderground v.1.12,2013-04-23 07:35:00,
2013-04-23 03:40:00,49.4,39.3,30.16,North,359,0.0,-999.0,68,0.00,,,0.00,Wunderground v.1.12,2013-04-23 07:40:00,
2013-04-23 03:45:00,49.2,39.1,30.16,North,359,0.0,-999.0,68,0.00,,,0.00,Wunderground v.1.12,2013-04-23 07:45:00,
2013-04-23 03:50:00,48.9,39.2,30.16,North,359,0.0,-999.0,69,0.00,,,0.00,Wunderground v.1.12,2013-04-23 07:50:00,
2013-04-23 03:55:00,48.8,39.1,30.16,North,359,0.0,-999.0,69,0.00,,,0.00,Wunderground v.1.12,2013-04-23 07:55:00,
2013-04-23 04:00:00,48.5,38.8,30.16,North,359,0.0,-999.0,69,0.00,,,0.00,Wunderground v.1.12,2013-04-23 08:00:00,
2013-04-23 04:06:00,48.3,38.6,30.16,North,359,0.0,-999.0,69,0.00,,,0.00,Wunderground v.1.12,2013-04-23 08:06:00,
2013-04-23 04:11:00,48.2,38.5,30.16,North,359,0.0,-999.0,69,0.00,,,0.00,Wunderground v.1.12,2013-04-23 08:11:00,
2013-04-23 04:16:00,48.0,38.7,30.16,North,359,0.0,-999.0,70,0.00,,,0.00,Wunderground v.1.12,2013-04-23 08:16:00,
2013-04-23 04:21:00,47.9,38.6,30.16,North,359,0.0,-999.0,70,0.00,,,0.00,Wunderground v.1.12,2013-04-23 08:21:00,
2013-04-23 04:26:00,47.6,38.3,30.16,North,359,0.0,-999.0,70,0.00,,,0.00,Wunderground v.1.12,2013-04-23 08:26:00,
2013-04-23 04:31:00,47.4,38.1,30.16,North,359,0.0,-999.0,70,0.00,,,0.00,Wunderground v.1.12,2013-04-23 08:31:00,
2013-04-23 04:36:00,47.3,38.0,30.16,North,359,0.0,-999.0,70,0.00,,,0.00,Wunderground v.1.12,2013-04-23 08:36:00,
2013-04-23 04:41:00,47.1,37.8,30.17,North,359,0.0,-999.0,70,0.00,,,0.00,Wunderground v.1.12,2013-04-23 08:41:00,
2013-04-23 04:46:00,47.0,38.1,30.17,North,359,0.0,-999.0,71,0.00,,,0.00,Wunderground v.1.12,2013-04-23 08:46:00,
2013-04-23 04:51:00,46.8,37.9,30.17,North,359,0.0,-999.0,71,0.00,,,0.00,Wunderground v.1.12,2013-04-23 08:51:00,
2013-04-23 04:56:00,46.7,37.8,30.17,North,359,0.0,-999.0,71,0.00,,,0.00,Wunderground v.1.12,2013-04-23 08:56:00,
2013-04-23 05:01:00,46.5,37.6,30.17,North,359,0.0,-999.0,71,0.00,,,0.00,Wunderground v.1.12,2013-04-23 09:01:00,
2013-04-23 05:06:00,46.4,37.9,30.17,North,359,0.0,-999.0,72,0.00,,,0.00,Wunderground v.1.12,2013-04-23 09:06:00,
2013-04-23 05:11:00,46.2,37.7,30.18,North,359,0.0,-999.0,72,0.00,,,0.00,Wunderground v.1.12,2013-04-23 09:11:00,
2013-04-23 05:16:00,46.1,37.6,30.18,North,359,0.0,-999.0,72,0.00,,,0.00,Wunderground v.1.12,2013-04-23 09:16:00,
2013-04-23 05:21:00,46.0,37.5,30.18,North,359,0.0,-999.0,72,0.00,,,0.00,Wunderground v.1.12,2013-04-23 09:21:00,
2013-04-23 05:26:00,45.8,37.3,30.18,North,359,0.0,-999.0,72,0.00,,,0.00,Wunderground v.1.12,2013-04-23 09:26:00,
2013-04-23 05:31:00,45.7,37.2,30.18,North,359,0.0,-999.0,72,0.00,,,0.00,Wunderground v.1.12,2013-04-23 09:31:00,
2013-04-23 05:36:00,45.5,37.3,30.18,North,359,0.0,-999.0,73,0.00,,,0.00,Wunderground v.1.12,2013-04-23 09:36:00,
2013-04-23 05:41:00,45.4,37.2,30.18,North,359,0.0,-999.0,73,0.00,,,0.00,Wunderground v.1.12,2013-04-23 09:41:00,
2013-04-23 05:46:00,45.2,37.1,30.18,North,359,0.0,-999.0,73,0.00,,,0.00,Wunderground v.1.12,2013-04-23 09:46:00,
2013-04-23 05:51:00,45.1,37.0,30.18,North,359,0.0,-999.0,73,0.00,,,0.00,Wunderground v.1.12,2013-04-23 09:51:00,
2013-04-23 05:56:00,44.9,37.1,30.18,North,359,0.0,-999.0,74,0.00,,,0.00,Wunderground v.1.12,2013-04-23 09:56:00,
2013-04-23 06:01:00,44.8,37.0,30.18,North,359,0.0,-999.0,74,0.00,,,0.00,Wunderground v.1.12,2013-04-23 10:01:00,
2013-04-23 06:06:00,44.6,36.8,30.18,North,359,0.0,-999.0,74,0.00,,,0.00,Wunderground v.1.12,2013-04-23 10:06:00,
2013-04-23 06:11:00,44.5,36.7,30.18,North,359,0.0,-999.0,74,0.00,,,0.00,Wunderground v.1.12,2013-04-23 10:11:00,
2013-04-23 06:16:00,44.3,36.9,30.18,North,359,0.0,-999.0,75,0.00,,,0.00,Wunderground v.1.12,2013-04-23 10:16:00,
2013-04-23 06:21:00,44.2,36.8,30.18,North,359,0.0,-999.0,75,0.00,,,0.00,Wunderground v.1.12,2013-04-23 10:21:00,
2013-04-23 06:26:00,44.2,36.8,30.18,North,359,0.0,-999.0,75,0.00,,,0.00,Wunderground v.1.12,2013-04-23 10:26:00,
2013-04-23 06:31:00,44.1,36.7,30.18,North,359,0.0,-999.0,75,0.00,,,0.00,Wunderground v.1.12,2013-04-23 10:31:00,
2013-04-23 06:36:00,43.9,36.5,30.18,North,353,0.0,-999.0,75,0.00,,,0.00,Wunderground v.1.12,2013-04-23 10:36:00,
2013-04-23 06:41:00,43.9,36.5,30.18,North,353,0.0,-999.0,75,0.00,,,0.00,Wunderground v.1.12,2013-04-23 10:41:00,
2013-04-23 06:46:00,43.9,36.1,30.18,North,353,0.0,-999.0,74,0.00,,,0.00,Wunderground v.1.12,2013-04-23 10:46:00,
2013-04-23 06:51:00,43.9,35.8,30.18,North,355,0.0,-999.0,73,0.00,,,0.00,Wunderground v.1.12,2013-04-23 10:51:00,
2013-04-23 06:56:00,44.1,35.6,30.18,SE,125,0.0,-999.0,72,0.00,,,0.00,Wunderground v.1.12,2013-04-23 10:56:00,
2013-04-23 07:01:00,44.2,35.4,30.18,SE,125,0.0,-999.0,71,0.00,,,0.00,Wunderground v.1.12,2013-04-23 11:01:00,
2013-04-23 07:06:00,44.3,35.5,30.18,SE,125,0.0,-999.0,71,0.00,,,0.00,Wunderground v.1.12,2013-04-23 11:06:00,
2013-04-23 07:11:00,44.6,35.8,30.19,SE,125,0.0,-999.0,71,0.00,,,0.00,Wunderground v.1.12,2013-04-23 11:11:00,
2013-04-23 07:16:00,44.8,35.6,30.19,NW,308,0.0,-999.0,70,0.00,,,0.00,Wunderground v.1.12,2013-04-23 11:16:00,
2013-04-23 07:21:00,44.9,35.7,30.19,NW,308,0.0,-999.0,70,0.00,,,0.00,Wunderground v.1.12,2013-04-23 11:21:00,
2013-04-23 07:26:00,45.1,35.9,30.20,NW,308,0.0,-999.0,70,0.00,,,0.00,Wunderground v.1.12,2013-04-23 11:26:00,
2013-04-23 07:31:00,45.2,36.0,30.20,NW,308,0.0,-999.0,70,0.00,,,0.00,Wunderground v.1.12,2013-04-23 11:31:00,
2013-04-23 07:37:00,45.4,36.2,30.20,NW,308,0.0,-999.0,70,0.00,,,0.00,Wunderground v.1.12,2013-04-23 11:37:00,
2013-04-23 07:43:00,45.5,36.3,30.20,NW,308,0.0,-999.0,70,0.00,,,0.00,Wunderground v.1.12,2013-04-23 11:43:00,
2013-04-23 07:48:00,45.7,36.8,30.20,NW,308,0.0,-999.0,71,0.00,,,0.00,Wunderground v.1.12,2013-04-23 11:48:00,
2013-04-23 07:53:00,45.8,36.6,30.20,NW,317,0.0,-999.0,70,0.00,,,0.00,Wunderground v.1.12,2013-04-23 11:53:00,
2013-04-23 07:58:00,46.1,36.5,30.20,NW,317,0.0,-999.0,69,0.00,,,0.00,Wunderground v.1.12,2013-04-23 11:58:00,
2013-04-23 08:03:00,46.2,36.6,30.20,NW,317,0.0,-999.0,69,0.00,,,0.00,Wunderground v.1.12,2013-04-23 12:03:00,
2013-04-23 08:08:00,46.5,36.9,30.20,NW,317,0.0,-999.0,69,0.00,,,0.00,Wunderground v.1.12,2013-04-23 12:08:00,
2013-04-23 08:13:00,47.0,37.4,30.21,NW,324,0.0,-999.0,69,0.00,,,0.00,Wunderground v.1.12,2013-04-23 12:13:00,
2013-04-23 08:18:00,47.3,37.3,30.21,NW,325,0.0,-999.0,68,0.00,,,0.00,Wunderground v.1.12,2013-04-23 12:18:00,
2013-04-23 08:23:00,47.7,37.3,30.21,North,350,0.0,-999.0,67,0.00,,,0.00,Wunderground v.1.12,2013-04-23 12:23:00,
2013-04-23 08:28:00,48.2,37.8,30.21,NE,36,0.0,-999.0,67,0.00,,,0.00,Wunderground v.1.12,2013-04-23 12:28:00,
2013-04-23 08:33:00,48.8,37.9,30.21,SSE,166,0.0,-999.0,66,0.00,,,0.00,Wunderground v.1.12,2013-04-23 12:33:00,
2013-04-23 08:38:00,49.4,38.1,30.21,South,181,0.0,-999.0,65,0.00,,,0.00,Wunderground v.1.12,2013-04-23 12:38:00,
2013-04-23 08:43:00,49.8,38.5,30.21,NNE,27,0.0,-999.0,65,0.00,,,0.00,Wunderground v.1.12,2013-04-23 12:43:00,
2013-04-23 08:48:00,50.4,38.7,30.21,East,88,0.0,-999.0,64,0.00,,,0.00,Wunderground v.1.12,2013-04-23 12:48:00,
2013-04-23 08:53:00,50.8,38.7,30.21,South,185,1.0,-999.0,63,0.00,,,0.00,Wunderground v.1.12,2013-04-23 12:53:00,
2013-04-23 08:58:00,51.4,38.8,30.21,ENE,70,0.0,-999.0,62,0.00,,,0.00,Wunderground v.1.12,2013-04-23 12:58:00,
2013-04-23 09:03:00,52.0,39.4,30.21,NNE,29,4.0,-999.0,62,0.00,,,0.00,Wunderground v.1.12,2013-04-23 13:03:00,
2013-04-23 09:08:00,52.5,39.4,30.21,North,7,0.0,-999.0,61,0.00,,,0.00,Wunderground v.1.12,2013-04-23 13:08:00,
2013-04-23 09:13:00,52.8,39.7,30.20,NE,37,0.0,-999.0,61,0.00,,,0.00,Wunderground v.1.12,2013-04-23 13:13:00,
2013-04-23 09:18:00,53.2,39.7,30.20,North,356,0.0,-999.0,60,0.00,,,0.00,Wunderground v.1.12,2013-04-23 13:18:00,
2013-04-23 09:23:00,53.6,40.0,30.20,ESE,110,0.0,-999.0,60,0.00,,,0.00,Wunderground v.1.12,2013-04-23 13:23:00,
2013-04-23 09:28:00,53.9,39.9,30.21,ESE,109,0.0,-999.0,59,0.00,,,0.00,Wunderground v.1.12,2013-04-23 13:28:00,
2013-04-23 09:33:00,54.4,39.9,30.21,NE,38,0.0,-999.0,58,0.00,,,0.00,Wunderground v.1.12,2013-04-23 13:33:00,
2013-04-23 09:38:00,54.8,40.3,30.21,NE,46,1.0,-999.0,58,0.00,,,0.00,Wunderground v.1.12,2013-04-23 13:38:00,
2013-04-23 09:43:00,55.4,40.4,30.21,ENE,64,2.0,-999.0,57,0.00,,,0.00,Wunderground v.1.12,2013-04-23 13:43:00,
2013-04-23 09:48:00,55.9,40.0,30.21,North,7,0.0,-999.0,55,0.00,,,0.00,Wunderground v.1.12,2013-04-23 13:48:00,
2013-04-23 09:53:00,56.5,40.0,30.21,NE,43,3.0,-999.0,54,0.00,,,0.00,Wunderground v.1.12,2013-04-23 13:53:00,
2013-04-23 09:58:00,56.7,40.2,30.20,ENE,67,0.0,-999.0,54,0.00,,,0.00,Wunderground v.1.12,2013-04-23 13:58:00,
2013-04-23 10:03:00,57.2,40.7,30.20,North,9,0.0,-999.0,54,0.00,,,0.00,Wunderground v.1.12,2013-04-23 14:03:00,
2013-04-23 10:08:00,57.6,40.6,30.20,South,187,0.0,-999.0,53,0.00,,,0.00,Wunderground v.1.12,2013-04-23 14:08:00,
2013-04-23 10:13:00,58.1,40.6,30.21,South,182,0.0,-999.0,52,0.00,,,0.00,Wunderground v.1.12,2013-04-23 14:13:00,
2013-04-23 10:18:00,58.6,40.5,30.21,NNE,14,1.0,-999.0,51,0.00,,,0.00,Wunderground v.1.12,2013-04-23 14:18:00,
2013-04-23 10:24:00,59.0,40.4,30.21,NE,43,0.0,-999.0,50,0.00,,,0.00,Wunderground v.1.12,2013-04-23 14:24:00,
2013-04-23 10:29:00,59.5,40.8,30.20,NNE,20,0.0,-999.0,50,0.00,,,0.00,Wunderground v.1.12,2013-04-23 14:29:00,
2013-04-23 10:34:00,59.9,40.1,30.20,ENE,74,4.0,-999.0,48,0.00,,,0.00,Wunderground v.1.12,2013-04-23 14:34:00,
2013-04-23 10:39:00,60.2,39.9,30.20,NE,43,3.0,-999.0,47,0.00,,,0.00,Wunderground v.1.12,2013-04-23 14:39:00,
2013-04-23 10:44:00,60.9,40.5,30.21,ESE,109,0.0,-999.0,47,0.00,,,0.00,Wunderground v.1.12,2013-04-23 14:44:00,
2013-04-23 10:49:00,61.2,40.8,30.21,NNE,24,1.0,-999.0,47,0.00,,,0.00,Wunderground v.1.12,2013-04-23 14:49:00,
2013-04-23 10:54:00,61.6,40.6,30.21,NE,55,5.0,-999.0,46,0.00,,,0.00,Wunderground v.1.12,2013-04-23 14:54:00,
2013-04-23 10:59:00,62.0,41.5,30.21,South,190,2.0,-999.0,47,0.00,,,0.00,Wunderground v.1.12,2013-04-23 14:59:00,
2013-04-23 11:04:00,62.4,40.8,30.21,NE,53,0.0,-999.0,45,0.00,,,0.00,Wunderground v.1.12,2013-04-23 15:04:00,
2013-04-23 11:10:00,62.7,39.9,30.21,North,5,0.0,-999.0,43,0.00,,,0.00,Wunderground v.1.12,2013-04-23 15:10:00,
2013-04-23 11:15:00,63.2,40.9,30.21,ENE,64,0.0,-999.0,44,0.00,,,0.00,Wunderground v.1.12,2013-04-23 15:15:00,
2013-04-23 11:20:00,63.5,41.8,30.21,SSE,167,4.0,-999.0,45,0.00,,,0.00,Wunderground v.1.12,2013-04-23 15:20:00,
2013-04-23 11:25:00,64.0,40.4,30.21,WSW,242,0.0,-999.0,42,0.00,,,0.00,Wunderground v.1.12,2013-04-23 15:25:00,
2013-04-23 11:30:00,64.7,41.7,30.21,SSE,151,0.0,-999.0,43,0.00,,,0.00,Wunderground v.1.12,2013-04-23 15:30:00,
2013-04-23 11:35:00,65.2,40.9,30.21,ENE,64,4.0,-999.0,41,0.00,,,0.00,Wunderground v.1.12,2013-04-23 15:35:00,
2013-04-23 11:40:00,65.5,39.9,30.21,South,175,1.0,-999.0,39,0.00,,,0.00,Wunderground v.1.12,2013-04-23 15:40:00,
2013-04-23 11:45:00,66.1,41.7,30.20,East,84,2.0,-999.0,41,0.00,,,0.00,Wunderground v.1.12,2013-04-23 15:45:00,
2013-04-23 11:50:00,66.6,40.9,30.20,North,5,0.0,-999.0,39,0.00,,,0.00,Wunderground v.1.12,2013-04-23 15:50:00,
2013-04-23 11:55:00,66.8,41.0,30.20,SSW,197,0.0,-999.0,39,0.00,,,0.00,Wunderground v.1.12,2013-04-23 15:55:00,
2013-04-23 12:00:00,67.1,41.3,30.19,ENE,60,0.0,-999.0,39,0.00,,,0.00,Wunderground v.1.12,2013-04-23 16:00:00,
2013-04-23 12:05:00,67.6,41.7,30.19,East,92,0.0,-999.0,39,0.00,,,0.00,Wunderground v.1.12,2013-04-23 16:05:00,
2013-04-23 12:10:00,68.1,42.9,30.19,NE,44,0.0,-999.0,40,0.00,,,0.00,Wunderground v.1.12,2013-04-23 16:10:00,
2013-04-23 12:15:00,68.4,43.1,30.19,NNE,24,0.0,-999.0,40,0.00,,,0.00,Wunderground v.1.12,2013-04-23 16:15:00,
2013-04-23 12:20:00,69.1,43.1,30.19,ENE,62,0.0,-999.0,39,0.00,,,0.00,Wunderground v.1.12,2013-04-23 16:20:00,
2013-04-23 12:25:00,69.8,43.7,30.17,SE,136,0.0,-999.0,39,0.00,,,0.00,Wunderground v.1.12,2013-04-23 16:25:00,
2013-04-23 12:30:00,70.3,42.8,30.17,NNW,342,0.0,-999.0,37,0.00,,,0.00,Wunderground v.1.12,2013-04-23 16:30:00,
2013-04-23 12:35:00,70.6,41.6,30.17,ENE,57,0.0,-999.0,35,0.00,,,0.00,Wunderground v.1.12,2013-04-23 16:35:00,
2013-04-23 12:40:00,70.9,44.0,30.17,NE,38,0.0,-999.0,38,0.00,,,0.00,Wunderground v.1.12,2013-04-23 16:40:00,
2013-04-23 12:46:00,71.6,42.5,30.17,ENE,57,0.0,-999.0,35,0.00,,,0.00,Wunderground v.1.12,2013-04-23 16:46:00,
2013-04-23 12:51:00,72.0,42.1,30.17,North,2,0.0,-999.0,34,0.00,,,0.00,Wunderground v.1.12,2013-04-23 16:51:00,
2013-04-23 12:56:00,72.1,41.4,30.16,NE,34,0.0,-999.0,33,0.00,,,0.00,Wunderground v.1.12,2013-04-23 16:56:00,
2013-04-23 13:01:00,72.5,41.0,30.16,NNE,30,1.0,-999.0,32,0.00,,,0.00,Wunderground v.1.12,2013-04-23 17:01:00,
2013-04-23 13:06:00,72.5,44.7,30.16,North,7,0.0,-999.0,37,0.00,,,0.00,Wunderground v.1.12,2013-04-23 17:06:00,
2013-04-23 13:11:00,73.0,45.2,30.15,North,9,0.0,-999.0,37,0.00,,,0.00,Wunderground v.1.12,2013-04-23 17:11:00,
2013-04-23 13:16:00,73.9,44.5,30.15,East,79,0.0,-999.0,35,0.00,,,0.00,Wunderground v.1.12,2013-04-23 17:16:00,
2013-04-23 13:21:00,73.7,44.3,30.15,NE,48,0.0,-999.0,35,0.00,,,0.00,Wunderground v.1.12,2013-04-23 17:21:00,
2013-04-23 13:26:00,74.2,45.5,30.15,ESE,105,2.0,-999.0,36,0.00,,,0.00,Wunderground v.1.12,2013-04-23 17:26:00,
2013-04-23 13:31:00,74.4,45.7,30.15,SSE,151,1.0,-999.0,36,0.00,,,0.00,Wunderground v.1.12,2013-04-23 17:31:00,
2013-04-23 13:36:00,74.6,43.6,30.15,East,89,0.0,-999.0,33,0.00,,,0.00,Wunderground v.1.12,2013-04-23 17:36:00,
2013-04-23 13:41:00,74.7,45.2,30.14,ESE,108,0.0,-999.0,35,0.00,,,0.00,Wunderground v.1.12,2013-04-23 17:41:00,
2013-04-23 13:46:00,75.4,44.3,30.14,NE,55,0.0,-999.0,33,0.00,,,0.00,Wunderground v.1.12,2013-04-23 17:46:00,
2013-04-23 13:51:00,75.4,42.7,30.14,SE,143,0.0,-999.0,31,0.00,,,0.00,Wunderground v.1.12,2013-04-23 17:51:00,
2013-04-23 13:56:00,75.4,45.8,30.13,SE,142,2.0,-999.0,35,0.00,,,0.00,Wunderground v.1.12,2013-04-23 17:56:00,
2013-04-23 14:01:00,75.6,46.0,30.13,SE,142,0.0,-999.0,35,0.00,,,0.00,Wunderground v.1.12,2013-04-23 18:01:00,
2013-04-23 14:06:00,75.8,44.6,30.13,SE,134,0.0,-999.0,33,0.00,,,0.00,Wunderground v.1.12,2013-04-23 18:06:00,
2013-04-23 14:11:00,76.0,47.1,30.12,East,86,0.0,-999.0,36,0.00,,,0.00,Wunderground v.1.12,2013-04-23 18:11:00,
2013-04-23 14:16:00,76.0,46.4,30.12,ENE,57,0.0,-999.0,35,0.00,,,0.00,Wunderground v.1.12,2013-04-23 18:16:00,
2013-04-23 14:21:00,76.3,44.3,30.12,NE,44,0.0,-999.0,32,0.00,,,0.00,Wunderground v.1.12,2013-04-23 18:21:00,
2013-04-23 14:26:00,76.3,44.3,30.12,NE,41,0.0,-999.0,32,0.00,,,0.00,Wunderground v.1.12,2013-04-23 18:26:00,
2013-04-23 14:31:00,76.1,44.1,30.12,East,96,0.0,-999.0,32,0.00,,,0.00,Wunderground v.1.12,2013-04-23 18:31:00,
2013-04-23 14:36:00,75.8,44.6,30.12,NE,43,0.0,-999.0,33,0.00,,,0.00,Wunderground v.1.12,2013-04-23 18:36:00,
2013-04-23 14:41:00,75.4,44.3,30.12,NNE,27,5.0,-999.0,33,0.00,,,0.00,Wunderground v.1.12,2013-04-23 18:41:00,
2013-04-23 14:46:00,74.9,43.8,30.12,ENE,70,0.0,-999.0,33,0.00,,,0.00,Wunderground v.1.12,2013-04-23 18:46:00,
2013-04-23 14:51:00,74.2,44.0,30.12,NNE,30,0.0,-999.0,34,0.00,,,0.00,Wunderground v.1.12,2013-04-23 18:51:00,
2013-04-23 14:57:00,73.9,45.3,30.10,NE,34,0.0,-999.0,36,0.00,,,0.00,Wunderground v.1.12,2013-04-23 18:57:00,
2013-04-23 15:03:00,73.3,44.0,30.10,SSE,147,0.0,-999.0,35,0.00,,,0.00,Wunderground v.1.12,2013-04-23 19:03:00,
2013-04-23 15:07:00,73.0,45.2,30.10,SSE,147,0.0,-999.0,37,0.00,,,0.00,Wunderground v.1.12,2013-04-23 19:07:00,
2013-04-23 15:13:00,72.8,45.0,30.11,SE,144,0.0,-999.0,37,0.00,,,0.00,Wunderground v.1.12,2013-04-23 19:13:00,
2013-04-23 15:18:00,72.5,46.1,30.11,SSW,198,0.0,-999.0,39,0.00,,,0.00,Wunderground v.1.12,2013-04-23 19:18:00,
2013-04-23 15:23:00,72.5,45.4,30.11,ESE,113,2.0,-999.0,38,0.00,,,0.00,Wunderground v.1.12,2013-04-23 19:23:00,
2013-04-23 15:28:00,72.3,45.9,30.10,SSE,151,0.0,-999.0,39,0.00,,,0.00,Wunderground v.1.12,2013-04-23 19:28:00,
2013-04-23 15:33:00,72.3,45.9,30.10,SSE,150,0.0,-999.0,39,0.00,,,0.00,Wunderground v.1.12,2013-04-23 19:33:00,
2013-04-23 15:38:00,72.5,46.1,30.10,SSE,150,0.0,-999.0,39,0.00,,,0.00,Wunderground v.1.12,2013-04-23 19:38:00,
2013-04-23 15:43:00,72.5,45.4,30.09,SE,137,0.0,-999.0,38,0.00,,,0.00,Wunderground v.1.12,2013-04-23 19:43:00,
2013-04-23 15:48:00,72.3,45.3,30.09,NNE,19,0.0,-999.0,38,0.00,,,0.00,Wunderground v.1.12,2013-04-23 19:48:00,
2013-04-23 15:53:00,72.5,45.4,30.09,SE,146,0.0,-999.0,38,0.00,,,0.00,Wunderground v.1.12,2013-04-23 19:53:00,
2013-04-23 15:58:00,72.7,45.6,30.09,SE,146,0.0,-999.0,38,0.00,,,0.00,Wunderground v.1.12,2013-04-23 19:58:00,
2013-04-23 16:03:00,72.8,45.0,30.09,East,94,0.0,-999.0,37,0.00,,,0.00,Wunderground v.1.12,2013-04-23 20:03:00,
2013-04-23 16:08:00,72.8,45.0,30.09,East,92,0.0,-999.0,37,0.00,,,0.00,Wunderground v.1.12,2013-04-23 20:08:00,
2013-04-23 16:13:00,72.7,44.2,30.08,SSE,154,0.0,-999.0,36,0.00,,,0.00,Wunderground v.1.12,2013-04-23 20:13:00,
2013-04-23 16:18:00,72.7,44.9,30.08,SSE,153,3.0,-999.0,37,0.00,,,0.00,Wunderground v.1.12,2013-04-23 20:18:00,
2013-04-23 16:23:00,72.5,44.7,30.08,ESE,115,0.0,-999.0,37,0.00,,,0.00,Wunderground v.1.12,2013-04-23 20:23:00,
2013-04-23 16:28:00,72.3,45.3,30.08,ESE,115,0.0,-999.0,38,0.00,,,0.00,Wunderground v.1.12,2013-04-23 20:28:00,
2013-04-23 16:33:00,72.0,44.3,30.08,ESE,116,0.0,-999.0,37,0.00,,,0.00,Wunderground v.1.12,2013-04-23 20:33:00,
2013-04-23 16:38:00,71.8,44.1,30.08,SE,137,0.0,-999.0,37,0.00,,,0.00,Wunderground v.1.12,2013-04-23 20:38:00,
2013-04-23 16:43:00,71.8,44.8,30.07,ESE,116,0.0,-999.0,38,0.00,,,0.00,Wunderground v.1.12,2013-04-23 20:43:00,
2013-04-23 16:48:00,71.6,44.6,30.07,ESE,110,0.0,-999.0,38,0.00,,,0.00,Wunderground v.1.12,2013-04-23 20:48:00,
2013-04-23 16:53:00,71.6,45.3,30.07,ESE,110,0.0,-999.0,39,0.00,,,0.00,Wunderground v.1.12,2013-04-23 20:53:00,
2013-04-23 16:58:00,71.5,45.2,30.06,East,91,0.0,-999.0,39,0.00,,,0.00,Wunderground v.1.12,2013-04-23 20:58:00,
2013-04-23 17:03:00,71.5,45.2,30.06,East,84,0.0,-999.0,39,0.00,,,0.00,Wunderground v.1.12,2013-04-23 21:03:00,
2013-04-23 17:08:00,71.5,45.2,30.06,ENE,72,0.0,-999.0,39,0.00,,,0.00,Wunderground v.1.12,2013-04-23 21:08:00,
2013-04-23 17:13:00,71.5,45.2,30.06,SSE,166,4.0,-999.0,39,0.00,,,0.00,Wunderground v.1.12,2013-04-23 21:13:00,
2013-04-23 17:18:00,71.3,44.4,30.06,ESE,118,0.0,-999.0,38,0.00,,,0.00,Wunderground v.1.12,2013-04-23 21:18:00,
2013-04-23 17:23:00,71.3,45.1,30.06,SE,133,5.0,-999.0,39,0.00,,,0.00,Wunderground v.1.12,2013-04-23 21:23:00,
2013-04-23 17:29:00,71.3,45.7,30.06,SE,133,0.0,-999.0,40,0.00,,,0.00,Wunderground v.1.12,2013-04-23 21:29:00,
2013-04-23 17:34:00,71.1,44.9,30.06,SE,129,0.0,-999.0,39,0.00,,,0.00,Wunderground v.1.12,2013-04-23 21:34:00,
2013-04-23 17:39:00,71.1,44.9,30.06,SE,129,0.0,-999.0,39,0.00,,,0.00,Wunderground v.1.12,2013-04-23 21:39:00,
2013-04-23 17:44:00,71.1,44.9,30.06,SE,130,0.0,-999.0,39,0.00,,,0.00,Wunderground v.1.12,2013-04-23 21:44:00,
2013-04-23 17:49:00,71.1,45.5,30.06,East,101,0.0,-999.0,40,0.00,,,0.00,Wunderground v.1.12,2013-04-23 21:49:00,
2013-04-23 17:54:00,70.9,44.7,30.06,SE,126,0.0,-999.0,39,0.00,,,0.00,Wunderground v.1.12,2013-04-23 21:54:00,
2013-04-23 17:59:00,70.9,45.4,30.05,SE,125,0.0,-999.0,40,0.00,,,0.00,Wunderground v.1.12,2013-04-23 21:59:00,
2013-04-23 18:04:00,70.9,44.7,30.05,NE,43,0.0,-999.0,39,0.00,,,0.00,Wunderground v.1.12,2013-04-23 22:04:00,
2013-04-23 18:09:00,70.9,44.7,30.05,ENE,77,0.0,-999.0,39,0.00,,,0.00,Wunderground v.1.12,2013-04-23 22:09:00,
2013-04-23 18:14:00,70.9,44.7,30.05,East,86,0.0,-999.0,39,0.00,,,0.00,Wunderground v.1.12,2013-04-23 22:14:00,
2013-04-23 18:19:00,70.9,44.7,30.05,SE,126,0.0,-999.0,39,0.00,,,0.00,Wunderground v.1.12,2013-04-23 22:19:00,
2013-04-23 18:24:00,70.8,43.9,30.05,ENE,71,0.0,-999.0,38,0.00,,,0.00,Wunderground v.1.12,2013-04-23 22:24:00,
2013-04-23 18:29:00,70.8,43.9,30.05,ENE,72,0.0,-999.0,38,0.00,,,0.00,Wunderground v.1.12,2013-04-23 22:29:00,
2013-04-23 18:34:00,70.8,44.6,30.05,ESE,105,0.0,-999.0,39,0.00,,,0.00,Wunderground v.1.12,2013-04-23 22:34:00,
2013-04-23 18:39:00,70.8,43.9,30.05,ESE,105,0.0,-999.0,38,0.00,,,0.00,Wunderground v.1.12,2013-04-23 22:39:00,
2013-04-23 18:44:00,70.6,45.1,30.05,ESE,105,0.0,-999.0,40,0.00,,,0.00,Wunderground v.1.12,2013-04-23 22:44:00,
2013-04-23 18:49:00,70.6,45.1,30.05,ESE,105,0.0,-999.0,40,0.00,,,0.00,Wunderground v.1.12,2013-04-23 22:49:00,
2013-04-23 18:54:00,70.6,45.1,30.05,NE,46,0.0,-999.0,40,0.00,,,0.00,Wunderground v.1.12,2013-04-23 22:54:00,
2013-04-23 18:59:00,70.4,45.6,30.05,East,82,0.0,-999.0,41,0.00,,,0.00,Wunderground v.1.12,2013-04-23 22:59:00,
2013-04-23 19:04:00,70.4,44.9,30.05,East,84,0.0,-999.0,40,0.00,,,0.00,Wunderground v.1.12,2013-04-23 23:04:00,
2013-04-23 19:09:00,70.4,45.6,30.05,East,86,0.0,-999.0,41,0.00,,,0.00,Wunderground v.1.12,2013-04-23 23:09:00,
2013-04-23 19:14:00,70.3,45.5,30.04,SSE,156,0.0,-999.0,41,0.00,,,0.00,Wunderground v.1.12,2013-04-23 23:14:00,
2013-04-23 19:19:00,70.3,45.5,30.04,SSE,156,0.0,-999.0,41,0.00,,,0.00,Wunderground v.1.12,2013-04-23 23:19:00,
2013-04-23 19:25:00,70.3,45.5,30.04,SE,139,0.0,-999.0,41,0.00,,,0.00,Wunderground v.1.12,2013-04-23 23:25:00,
2013-04-23 19:30:00,70.1,45.9,30.04,SE,139,0.0,-999.0,42,0.00,,,0.00,Wunderground v.1.12,2013-04-23 23:30:00,
2013-04-23 19:35:00,70.1,45.9,30.04,SE,139,0.0,-999.0,42,0.00,,,0.00,Wunderground v.1.12,2013-04-23 23:35:00,
2013-04-23 19:40:00,69.9,47.0,30.04,SE,139,0.0,-999.0,44,0.00,,,0.00,Wunderground v.1.12,2013-04-23 23:40:00,
2013-04-23 19:45:00,69.8,45.7,30.04,SE,139,0.0,-999.0,42,0.00,,,0.00,Wunderground v.1.12,2013-04-23 23:45:00,
2013-04-23 19:50:00,69.6,47.3,30.04,SE,139,0.0,-999.0,45,0.00,,,0.00,Wunderground v.1.12,2013-04-23 23:50:00,
2013-04-23 19:55:00,69.4,48.3,30.04,SE,139,0.0,-999.0,47,0.00,,,0.00,Wunderground v.1.12,2013-04-23 23:55:00,
2013-04-23 20:00:00,69.1,47.4,30.05,SE,139,0.0,-999.0,46,0.00,,,0.00,Wunderground v.1.12,2013-04-24 00:00:00,
2013-04-23 20:05:00,68.8,48.9,30.05,SE,139,0.0,-999.0,49,0.00,,,0.00,Wunderground v.1.12,2013-04-24 00:05:00,
2013-04-23 20:10:00,68.4,48.5,30.05,SE,139,0.0,-999.0,49,0.00,,,0.00,Wunderground v.1.12,2013-04-24 00:10:00,
2013-04-23 20:15:00,67.9,48.6,30.05,SE,139,0.0,-999.0,50,0.00,,,0.00,Wunderground v.1.12,2013-04-24 00:15:00,
2013-04-23 20:20:00,67.4,48.1,30.05,SE,139,0.0,-999.0,50,0.00,,,0.00,Wunderground v.1.12,2013-04-24 00:20:00,
2013-04-23 20:25:00,67.1,47.8,30.05,SE,139,0.0,-999.0,50,0.00,,,0.00,Wunderground v.1.12,2013-04-24 00:25:00,
2013-04-23 20:30:00,66.8,48.1,30.05,SE,139,0.0,-999.0,51,0.00,,,0.00,Wunderground v.1.12,2013-04-24 00:30:00,
2013-04-23 20:35:00,66.4,48.2,30.05,SE,139,0.0,-999.0,52,0.00,,,0.00,Wunderground v.1.12,2013-04-24 00:35:00,
2013-04-23 20:40:00,66.0,48.4,30.06,SE,139,0.0,-999.0,53,0.00,,,0.00,Wunderground v.1.12,2013-04-24 00:40:00,
2013-04-23 20:45:00,65.6,48.5,30.06,SE,139,0.0,-999.0,54,0.00,,,0.00,Wunderground v.1.12,2013-04-24 00:45:00,
2013-04-23 20:50:00,65.2,48.6,30.06,SE,139,0.0,-999.0,55,0.00,,,0.00,Wunderground v.1.12,2013-04-24 00:50:00,
2013-04-23 20:55:00,64.8,48.7,30.06,SE,139,0.0,-999.0,56,0.00,,,0.00,Wunderground v.1.12,2013-04-24 00:55:00,
2013-04-23 21:00:00,64.3,48.3,30.06,SE,139,0.0,-999.0,56,0.00,,,0.00,Wunderground v.1.12,2013-04-24 01:00:00,
2013-04-23 21:05:00,63.9,48.4,30.06,SE,139,0.0,-999.0,57,0.00,,,0.00,Wunderground v.1.12,2013-04-24 01:05:00,
2013-04-23 21:10:00,63.5,48.5,30.06,SE,139,0.0,-999.0,58,0.00,,,0.00,Wunderground v.1.12,2013-04-24 01:10:00,
2013-04-23 21:15:00,63.2,48.6,30.06,SE,139,0.0,-999.0,59,0.00,,,0.00,Wunderground v.1.12,2013-04-24 01:15:00,
2013-04-23 21:20:00,62.7,48.6,30.06,SE,139,0.0,-999.0,60,0.00,,,0.00,Wunderground v.1.12,2013-04-24 01:20:00,
2013-04-23 21:25:00,62.4,48.3,30.07,SE,139,0.0,-999.0,60,0.00,,,0.00,Wunderground v.1.12,2013-04-24 01:25:00,
2013-04-23 21:31:00,62.1,48.5,30.07,SE,139,0.0,-999.0,61,0.00,,,0.00,Wunderground v.1.12,2013-04-24 01:31:00,
2013-04-23 21:36:00,61.6,48.4,30.07,SE,139,0.0,-999.0,62,0.00,,,0.00,Wunderground v.1.12,2013-04-24 01:36:00,
2013-04-23 21:41:00,61.3,48.2,30.08,SE,139,0.0,-999.0,62,0.00,,,0.00,Wunderground v.1.12,2013-04-24 01:41:00,
2013-04-23 21:46:00,61.0,48.3,30.08,SE,139,0.0,-999.0,63,0.00,,,0.00,Wunderground v.1.12,2013-04-24 01:46:00,
2013-04-23 21:51:00,60.7,48.0,30.08,SE,139,0.0,-999.0,63,0.00,,,0.00,Wunderground v.1.12,2013-04-24 01:51:00,
2013-04-23 21:56:00,60.5,48.3,30.08,SE,139,0.0,-999.0,64,0.00,,,0.00,Wunderground v.1.12,2013-04-24 01:56:00,
2013-04-23 22:01:00,60.2,48.4,30.08,SE,139,0.0,-999.0,65,0.00,,,0.00,Wunderground v.1.12,2013-04-24 02:01:00,
2013-04-23 22:06:00,59.9,48.1,30.08,SE,139,0.0,-999.0,65,0.00,,,0.00,Wunderground v.1.12,2013-04-24 02:06:00,
2013-04-23 22:11:00,59.6,48.2,30.08,SE,139,0.0,-999.0,66,0.00,,,0.00,Wunderground v.1.12,2013-04-24 02:11:00,
2013-04-23 22:16:00,59.3,48.3,30.08,SE,139,0.0,-999.0,67,0.00,,,0.00,Wunderground v.1.12,2013-04-24 02:16:00,
2013-04-23 22:21:00,59.0,48.1,30.08,SE,139,0.0,-999.0,67,0.00,,,0.00,Wunderground v.1.12,2013-04-24 02:21:00,
2013-04-23 22:27:00,58.9,48.4,30.08,SE,139,0.0,-999.0,68,0.00,,,0.00,Wunderground v.1.12,2013-04-24 02:27:00,
2013-04-23 22:32:00,58.6,48.5,30.08,SE,139,0.0,-999.0,69,0.00,,,0.00,Wunderground v.1.12,2013-04-24 02:32:00,
2013-04-23 22:38:00,58.3,48.2,30.08,SE,139,0.0,-999.0,69,0.00,,,0.00,Wunderground v.1.12,2013-04-24 02:38:00,
2013-04-23 22:43:00,58.1,48.4,30.08,SE,139,0.0,-999.0,70,0.00,,,0.00,Wunderground v.1.12,2013-04-24 02:43:00,
2013-04-23 22:48:00,58.0,48.3,30.08,SE,139,0.0,-999.0,70,0.00,,,0.00,Wunderground v.1.12,2013-04-24 02:48:00,
2013-04-23 22:53:00,57.6,47.9,30.08,SE,139,0.0,-999.0,70,0.00,,,0.00,Wunderground v.1.12,2013-04-24 02:53:00,
2013-04-23 22:58:00,57.5,48.2,30.08,SE,139,0.0,-999.0,71,0.00,,,0.00,Wunderground v.1.12,2013-04-24 02:58:00,
2013-04-23 23:03:00,57.3,48.0,30.08,SE,139,0.0,-999.0,71,0.00,,,0.00,Wunderground v.1.12,2013-04-24 03:03:00,
2013-04-23 23:10:00,57.0,48.1,30.08,SE,139,0.0,-999.0,72,0.00,,,0.00,Wunderground v.1.12,2013-04-24 03:10:00,
2013-04-23 23:15:00,56.9,48.3,30.08,SE,139,0.0,-999.0,73,0.00,,,0.00,Wunderground v.1.12,2013-04-24 03:15:00,
2013-04-23 23:20:00,56.7,48.1,30.08,SE,139,0.0,-999.0,73,0.00,,,0.00,Wunderground v.1.12,2013-04-24 03:20:00,
2013-04-23 23:25:00,56.5,47.9,30.08,SE,139,0.0,-999.0,73,0.00,,,0.00,Wunderground v.1.12,2013-04-24 03:25:00,
2013-04-23 23:31:00,56.3,48.1,30.07,SE,139,0.0,-999.0,74,0.00,,,0.00,Wunderground v.1.12,2013-04-24 03:31:00,
2013-04-23 23:36:00,56.2,48.0,30.07,SE,139,0.0,-999.0,74,0.00,,,0.00,Wunderground v.1.12,2013-04-24 03:36:00,
2013-04-23 23:42:00,56.0,48.2,30.08,SE,139,0.0,-999.0,75,0.00,,,0.00,Wunderground v.1.12,2013-04-24 03:42:00,
2013-04-23 23:48:00,55.7,47.9,30.08,SE,139,0.0,-999.0,75,0.00,,,0.00,Wunderground v.1.12,2013-04-24 03:48:00,
2013-04-23 23:53:00,55.6,47.8,30.08,SE,139,0.0,-999.0,75,0.00,,,0.00,Wunderground v.1.12,2013-04-24 03:53:00,
2013-04-23 23:58:00,55.4,48.0,30.07,SE,139,0.0,-999.0,76,0.00,,,0.00,Wunderground v.1.12,2013-04-24 03:58:00,